When you browse on this site, cookies collect data to enhance your experience and personalize the content and advertising you see.
Visit our Privacy Policy to learn more. By continuing to use the site, you agree to this use of cookies and data.
  • En España
  • Lista de países
  • Para 7 días
  • Temperatura del agua
  • Mapa Satelital
  • El tiempo en el mapa
  • Informadores
  • user-avatar
    Iniciar sesión

    Tiempo cada hora Melbourne

    Hoy, 21 Abril, Domingo

    Tiempo Temperatura Precipitaciones Viento Presión Humedad
    00:00 +22°C° 0 mm 4 mps 762 mmHg 47%
    01:00 +22°C° 0 mm 4 mps 762 mmHg 47%
    02:00 +22°C° 0 mm 4 mps 762 mmHg 47%
    03:00 +22°C° 0 mm 4 mps 762 mmHg 47%
    04:00 +22°C° 0 mm 5 mps 761 mmHg 48%
    05:00 +22°C° 0 mm 5 mps 761 mmHg 48%
    06:00 +22°C° 0 mm 5 mps 761 mmHg 48%
    07:00 +22°C° 0 mm 6 mps 761 mmHg 49%
    08:00 +23°C° 0 mm 6 mps 762 mmHg 48%
    09:00 +24°C° 0 mm 7 mps 762 mmHg 46%
    10:00 +24°C° 0 mm 7 mps 762 mmHg 45%
    11:00 +26°C° 0 mm 7 mps 762 mmHg 45%
    12:00 +27°C° 0 mm 6 mps 761 mmHg 44%
    13:00 +28°C° 0 mm 6 mps 761 mmHg 44%
    14:00 +28°C° 0 mm 5 mps 761 mmHg 44%
    15:00 +28°C° 0 mm 5 mps 761 mmHg 44%
    16:00 +28°C° 0 mm 4 mps 761 mmHg 45%
    17:00 +27°C° 0.1 mm 3 mps 761 mmHg 47%
    18:00 +26°C° 0.1 mm 3 mps 761 mmHg 50%
    19:00 +25°C° 0.1 mm 3 mps 762 mmHg 53%
    20:00 +22°C° 0.2 mm 3 mps 762 mmHg 63%
    21:00 +21°C° 0.2 mm 4 mps 763 mmHg 73%
    22:00 +19°C° 0.2 mm 4 mps 763 mmHg 83%
    23:00 +18°C° 0 mm 4 mps 764 mmHg 82%

    Mañana, 22 Abril, Lunes

    Tiempo Temperatura Precipitaciones Viento Presión Humedad
    00:00 +18°C° 0 mm 4 mps 764 mmHg 80%
    01:00 +18°C° 0 mm 3 mps 765 mmHg 79%
    02:00 +17°C° 0 mm 3 mps 765 mmHg 79%
    03:00 +17°C° 0 mm 3 mps 765 mmHg 79%
    04:00 +17°C° 0 mm 3 mps 765 mmHg 78%
    05:00 +16°C° 0 mm 3 mps 765 mmHg 79%
    06:00 +16°C° 0 mm 3 mps 766 mmHg 79%
    07:00 +16°C° 0 mm 3 mps 766 mmHg 79%
    08:00 +16°C° 0 mm 3 mps 767 mmHg 76%
    09:00 +16°C° 0 mm 3 mps 767 mmHg 73%
    10:00 +16°C° 0 mm 3 mps 767 mmHg 70%
    11:00 +17°C° 0 mm 3 mps 767 mmHg 66%
    12:00 +17°C° 0 mm 3 mps 767 mmHg 62%
    13:00 +18°C° 0 mm 3 mps 767 mmHg 57%
    14:00 +18°C° 0 mm 3 mps 767 mmHg 56%
    15:00 +19°C° 0 mm 3 mps 767 mmHg 54%
    16:00 +19°C° 0 mm 3 mps 767 mmHg 53%
    17:00 +18°C° 0 mm 3 mps 767 mmHg 56%
    18:00 +17°C° 0 mm 3 mps 768 mmHg 60%
    19:00 +16°C° 0 mm 3 mps 768 mmHg 63%
    20:00 +14°C° 0 mm 3 mps 769 mmHg 66%
    21:00 +15°C° 0 mm 2 mps 769 mmHg 69%
    22:00 +14°C° 0 mm 2 mps 770 mmHg 72%
    23:00 +14°C° 0 mm 2 mps 770 mmHg 74%

    Pasado mañana, 23 Abril, Martes

    Tiempo Temperatura Precipitaciones Viento Presión Humedad
    00:00 +13°C° 0 mm 2 mps 769 mmHg 76%
    01:00 +13°C° 0 mm 2 mps 769 mmHg 78%
    02:00 +13°C° 0 mm 1 mps 769 mmHg 80%
    03:00 +13°C° 0 mm 1 mps 769 mmHg 81%
    04:00 +12°C° 0 mm 1 mps 769 mmHg 83%
    05:00 +12°C° 0 mm 1 mps 769 mmHg 84%
    06:00 +12°C° 0 mm 1 mps 770 mmHg 85%
    07:00 +11°C° 0 mm 0 mps 770 mmHg 87%
    08:00 +13°C° 0 mm 1 mps 770 mmHg 79%
    09:00 +15°C° 0 mm 1 mps 770 mmHg 72%
    10:00 +16°C° 0 mm 1 mps 770 mmHg 64%
    11:00 +18°C° 0 mm 2 mps 770 mmHg 60%
    12:00 +19°C° 0 mm 2 mps 769 mmHg 56%
    13:00 +20°C° 0 mm 2 mps 769 mmHg 52%
    14:00 +20°C° 0 mm 2 mps 768 mmHg 52%
    15:00 +20°C° 0 mm 2 mps 768 mmHg 53%
    16:00 +20°C° 0 mm 3 mps 768 mmHg 54%
    17:00 +18°C° 0 mm 2 mps 768 mmHg 59%
    18:00 +17°C° 0 mm 2 mps 768 mmHg 65%
    19:00 +16°C° 0 mm 2 mps 769 mmHg 71%
    20:00 +15°C° 0 mm 2 mps 769 mmHg 74%
    21:00 +14°C° 0 mm 1 mps 769 mmHg 77%
    22:00 +14°C° 0 mm 1 mps 769 mmHg 80%
    23:00 +13°C° 0 mm 1 mps 769 mmHg 82%

    24 Abril, Miércoles

    Tiempo Temperatura Precipitaciones Viento Presión Humedad
    00:00 +13°C° 0 mm 1 mps 769 mmHg 83%
    01:00 +13°C° 0 mm 1 mps 768 mmHg 85%
    02:00 +12°C° 0 mm 1 mps 768 mmHg 86%
    03:00 +12°C° 0 mm 1 mps 768 mmHg 87%
    04:00 +11°C° 0 mm 0 mps 768 mmHg 88%
    05:00 +11°C° 0 mm 0 mps 768 mmHg 88%
    06:00 +11°C° 0 mm 0 mps 768 mmHg 88%
    07:00 +11°C° 0 mm 0 mps 768 mmHg 88%
    08:00 +12°C° 0 mm 0 mps 768 mmHg 80%
    09:00 +15°C° 0 mm 1 mps 768 mmHg 71%
    10:00 +18°C° 0 mm 1 mps 768 mmHg 63%
    11:00 +19°C° 0 mm 1 mps 767 mmHg 56%
    12:00 +21°C° 0 mm 1 mps 767 mmHg 49%
    13:00 +22°C° 0 mm 1 mps 766 mmHg 42%
    14:00 +23°C° 0 mm 1 mps 766 mmHg 41%
    15:00 +23°C° 0 mm 2 mps 765 mmHg 40%
    16:00 +23°C° 0 mm 2 mps 765 mmHg 39%
    17:00 +20°C° 0 mm 2 mps 765 mmHg 45%
    18:00 +19°C° 0 mm 2 mps 766 mmHg 51%
    19:00 +18°C° 0 mm 2 mps 766 mmHg 57%
    20:00 +17°C° 0 mm 2 mps 766 mmHg 62%
    21:00 +16°C° 0 mm 2 mps 767 mmHg 67%
    22:00 +15°C° 0 mm 2 mps 767 mmHg 72%
    23:00 +15°C° 0 mm 2 mps 767 mmHg 75%

    25 Abril, Jueves

    Tiempo Temperatura Precipitaciones Viento Presión Humedad
    00:00 +13°C° 0 mm 3 mps 767 mmHg 78%
    01:00 +13°C° 0 mm 3 mps 767 mmHg 80%
    02:00 +13°C° 0 mm 3 mps 766 mmHg 83%
    03:00 +13°C° 0 mm 3 mps 766 mmHg 85%
    04:00 +12°C° 0 mm 3 mps 766 mmHg 88%
    05:00 +12°C° 0 mm 3 mps 766 mmHg 87%
    06:00 +12°C° 0 mm 3 mps 767 mmHg 87%
    07:00 +12°C° 0 mm 3 mps 767 mmHg 87%
    08:00 +13°C° 0 mm 3 mps 767 mmHg 80%
    09:00 +14°C° 0 mm 3 mps 767 mmHg 73%
    10:00 +16°C° 0 mm 3 mps 767 mmHg 67%
    11:00 +17°C° 0 mm 3 mps 767 mmHg 60%
    12:00 +18°C° 0 mm 3 mps 766 mmHg 54%
    13:00 +20°C° 0 mm 3 mps 766 mmHg 48%
    14:00 +19°C° 0 mm 4 mps 766 mmHg 48%
    15:00 +19°C° 0 mm 4 mps 765 mmHg 48%
    16:00 +19°C° 0 mm 4 mps 765 mmHg 49%
    17:00 +18°C° 0 mm 4 mps 765 mmHg 54%
    18:00 +17°C° 0 mm 4 mps 766 mmHg 60%
    19:00 +14°C° 0 mm 3 mps 766 mmHg 65%
    20:00 +14°C° 0 mm 3 mps 766 mmHg 68%
    21:00 +13°C° 0 mm 3 mps 767 mmHg 70%
    22:00 +13°C° 0 mm 3 mps 767 mmHg 73%
    23:00 +12°C° 0 mm 3 mps 767 mmHg 75%

    26 Abril, Viernes

    Tiempo Temperatura Precipitaciones Viento Presión Humedad
    00:00 +12°C° 0 mm 3 mps 766 mmHg 78%
    01:00 +11°C° 0 mm 3 mps 766 mmHg 80%
    02:00 +11°C° 0 mm 3 mps 766 mmHg 81%
    03:00 +11°C° 0 mm 3 mps 766 mmHg 82%
    04:00 +11°C° 0 mm 3 mps 766 mmHg 83%
    05:00 +11°C° 0 mm 3 mps 766 mmHg 84%
    06:00 +11°C° 0 mm 3 mps 766 mmHg 85%
    07:00 +11°C° 0 mm 3 mps 767 mmHg 86%
    08:00 +12°C° 0 mm 4 mps 767 mmHg 79%
    09:00 +13°C° 0 mm 4 mps 767 mmHg 72%
    10:00 +15°C° 0 mm 5 mps 767 mmHg 65%
    11:00 +15°C° 0 mm 4 mps 767 mmHg 62%
    12:00 +17°C° 0 mm 4 mps 767 mmHg 58%
    13:00 +17°C° 0 mm 4 mps 767 mmHg 55%
    14:00 +17°C° 0 mm 4 mps 767 mmHg 55%
    15:00 +17°C° 0 mm 3 mps 767 mmHg 55%
    16:00 +17°C° 0 mm 3 mps 766 mmHg 55%
    17:00 +16°C° 0 mm 3 mps 767 mmHg 59%
    18:00 +14°C° 0 mm 3 mps 767 mmHg 63%
    19:00 +13°C° 0 mm 3 mps 768 mmHg 67%
    20:00 +12°C° 0 mm 3 mps 768 mmHg 69%
    21:00 +11°C° 0 mm 3 mps 768 mmHg 72%
    22:00 +12°C° 0 mm 2 mps 768 mmHg 74%
    23:00 +10°C° 0 mm 3 mps 768 mmHg 76%
    Mostrar más